Ankeny, IA

2:03 PM CDT on July 26, 2017 (GMT -0500)
Ankeny Regional

Weather History for KIKV - February, 2013

Change the Weather History Date:

Sunday, February 10, 2013

  Actual Average (KDSM) Record (KDSM)
Temperature  
Mean Temperature 40 °F -  
Max Temperature 51 °F 32 °F 66 °F (1999)
Min Temperature 30 °F 15 °F -20 °F (1885)
Degree Days  
Heating Degree Days 24    
Moisture  
Dew Point 32 °F    
Average Humidity 81    
Maximum Humidity 93    
Minimum Humidity 57    
Precipitation  
Precipitation 0.00 in - - ()
Sea Level Pressure  
Sea Level Pressure 29.49 in    
Wind  
Wind Speed 15 mph (South)    
Max Wind Speed 30 mph    
Max Gust Speed 43 mph    
Visibility 7 miles    
Events Rain    
Averages and records for this station are not official NWS values.
T = Trace of Precipitation, MM = Missing Value Source: NWS Daily Summary

Daily Weather History Graph

Daily Weather History Graph

Search for Another Location

Airport or City:

Trip Planner

Search our weather history database for the weather conditions in past years. The results will help you decide how hot, cold, wet, or windy it might be!

Date:

Astronomy

Feb. 10, 2013 Rise Set
Actual Time 7:15 AM CST 5:41 PM CST
Civil Twilight 6:47 AM CST 6:10 PM CST
Nautical Twilight 6:14 AM CST 6:43 PM CST
Astronomical Twilight 5:42 AM CST 7:15 PM CST
Moon 7:04 AM CST (2/10) 6:34 PM CST (2/10)
Length of Visible Light 11h 23m
Length of Day
10h 25m
New Moon, 0% of the Moon is Illuminated
Feb 10
New Moon
Feb 17
First Quarter
Feb 25
Full
Mar 4
Last Quarter
Mar 11
New

Hourly Weather History & Observations

Time (CST) Temp. Windchill Dew Point Humidity Pressure Visibility Wind Dir Wind Speed Gust Speed Precip Events Conditions
12:15 AM 32.0 °F 23.6 °F 28.4 °F 87% 29.83 in 4.0 mi SE 10.4 mph - N/A   Overcast
12:35 AM 33.8 °F 25.3 °F 30.2 °F 87% 29.82 in 5.0 mi SE 11.5 mph 18.4 mph N/A   Overcast
12:55 AM 33.8 °F 25.3 °F 30.2 °F 87% 29.81 in 5.0 mi ESE 11.5 mph 16.1 mph N/A   Overcast
1:15 AM 33.8 °F 25.3 °F 30.2 °F 87% 29.80 in 7.0 mi ESE 11.5 mph - N/A   Overcast
1:35 AM 33.8 °F 25.8 °F 28.4 °F 81% 29.80 in 7.0 mi SE 10.4 mph 17.3 mph N/A   Overcast
1:55 AM 30.2 °F 21.3 °F 26.6 °F 86% 29.81 in 7.0 mi ESE 10.4 mph - N/A   Overcast
2:15 AM 32.0 °F 22.1 °F 28.4 °F 87% 29.80 in 5.0 mi SE 13.8 mph - N/A   Overcast
2:35 AM 33.8 °F 25.3 °F 30.2 °F 87% 29.78 in 3.0 mi SE 11.5 mph - N/A   Overcast
2:55 AM 33.8 °F 26.4 °F 30.2 °F 87% 29.77 in 5.0 mi ESE 9.2 mph - N/A   Overcast
3:15 AM 33.8 °F 25.3 °F 30.2 °F 87% 29.74 in 2.5 mi ESE 11.5 mph 16.1 mph N/A   Overcast
3:35 AM 33.8 °F 24.3 °F 30.2 °F 87% 29.71 in 2.5 mi SE 13.8 mph 19.6 mph N/A   Overcast
3:55 AM 33.8 °F 25.3 °F 30.2 °F 87% 29.70 in 3.0 mi SE 11.5 mph - N/A   Overcast
4:15 AM 33.8 °F 24.3 °F 30.2 °F 87% 29.68 in 4.0 mi ESE 13.8 mph - N/A   Overcast
4:35 AM 33.8 °F 24.3 °F 30.2 °F 87% 29.67 in 4.0 mi SE 13.8 mph - N/A   Overcast
4:55 AM 33.8 °F 25.3 °F 30.2 °F 87% 29.63 in 5.0 mi ESE 11.5 mph - N/A   Overcast
5:15 AM 33.8 °F 23.9 °F 30.2 °F 87% 29.59 in 4.0 mi ESE 15.0 mph 19.6 mph N/A   Overcast
5:35 AM 35.6 °F 26.6 °F 32.0 °F 87% 29.61 in 3.0 mi SE 13.8 mph 18.4 mph N/A   Overcast
5:55 AM 33.8 °F 23.9 °F 30.2 °F 87% 29.61 in 2.0 mi SSE 15.0 mph - N/A Rain Light Rain
6:15 AM 33.8 °F 23.5 °F 30.2 °F 87% 29.55 in 1.8 mi ESE 16.1 mph 20.7 mph N/A Rain Rain
6:35 AM 35.6 °F 25.5 °F 32.0 °F 87% 29.56 in 2.0 mi SE 17.3 mph 24.2 mph N/A   Light Drizzle
6:55 AM 35.6 °F 26.2 °F 32.0 °F 87% 29.55 in 2.0 mi SE 15.0 mph 21.9 mph N/A Rain Rain
7:15 AM 35.6 °F 25.5 °F 32.0 °F 87% 29.54 in 2.5 mi SE 17.3 mph 24.2 mph N/A   Light Drizzle
7:35 AM 35.6 °F 26.2 °F 32.0 °F 87% 29.51 in 5.0 mi SE 15.0 mph 23.0 mph N/A   Drizzle
7:55 AM 35.6 °F 25.9 °F 33.8 °F 93% 29.48 in 7.0 mi SE 16.1 mph 20.7 mph N/A Rain Light Rain
8:15 AM 37.4 °F 27.8 °F 33.8 °F 87% 29.46 in 7.0 mi SE 17.3 mph 23.0 mph N/A   Overcast
8:35 AM 37.4 °F 28.5 °F 33.8 °F 87% 29.46 in 7.0 mi SE 15.0 mph 20.7 mph N/A   Overcast
8:55 AM 37.4 °F 28.2 °F 33.8 °F 87% 29.46 in 4.0 mi SE 16.1 mph 20.7 mph N/A   Overcast
9:15 AM 37.4 °F 28.9 °F 35.6 °F 93% 29.44 in 1.2 mi SE 13.8 mph - N/A   Overcast
9:35 AM 37.4 °F 30.3 °F 35.6 °F 93% 29.44 in 1.8 mi SE 10.4 mph - N/A   Overcast
9:55 AM 37.4 °F 31.4 °F 35.6 °F 93% 29.44 in 2.0 mi South 8.1 mph - N/A   Drizzle
10:15 AM 39.2 °F 31.6 °F 35.6 °F 87% 29.42 in 2.0 mi SE 12.7 mph 17.3 mph N/A   Light Drizzle
10:35 AM 39.2 °F 31.2 °F 37.4 °F 93% 29.40 in 5.0 mi SSE 13.8 mph 18.4 mph N/A   Overcast
10:55 AM 41.0 °F 34.3 °F 37.4 °F 87% 29.39 in 7.0 mi SSE 11.5 mph - N/A   Overcast
11:15 AM 42.8 °F 37.0 °F 39.2 °F 87% 29.38 in 7.0 mi SSE 10.4 mph - N/A   Overcast
11:35 AM 42.8 °F 36.6 °F 39.2 °F 87% 29.36 in 7.0 mi SSE 11.5 mph - N/A   Overcast
11:55 AM 44.6 °F 39.2 °F 42.8 °F 93% 29.35 in 7.0 mi SSE 10.4 mph - N/A   Mostly Cloudy
12:15 PM 46.4 °F 41.1 °F 42.8 °F 87% 29.32 in 10.0 mi SSE 11.5 mph - N/A   Mostly Cloudy
12:35 PM 48.2 °F - 44.6 °F 87% 29.30 in 10.0 mi SSE 13.8 mph - N/A   Clear
12:55 PM 51.8 °F - 44.6 °F 76% 29.28 in 10.0 mi South 15.0 mph 20.7 mph N/A   Scattered Clouds
1:15 PM 50.0 °F - 42.8 °F 76% 29.27 in 10.0 mi South 12.7 mph - N/A   Mostly Cloudy
1:35 PM 50.0 °F - 42.8 °F 76% 29.27 in 10.0 mi South 13.8 mph 20.7 mph N/A   Mostly Cloudy
1:55 PM 51.8 °F - 39.2 °F 62% 29.26 in 10.0 mi SSW 19.6 mph 29.9 mph N/A   Mostly Cloudy
2:15 PM 50.0 °F - 37.4 °F 62% 29.27 in 10.0 mi SSW 24.2 mph 33.4 mph N/A   Overcast
2:35 PM 48.2 °F - 35.6 °F 62% 29.29 in 10.0 mi SW 20.7 mph 35.7 mph N/A   Overcast
2:55 PM 48.2 °F - 33.8 °F 58% 29.30 in 10.0 mi SSW 24.2 mph 34.5 mph N/A   Overcast
3:15 PM 46.4 °F 37.7 °F 33.8 °F 62% 29.31 in 10.0 mi SW 26.5 mph 39.1 mph N/A   Overcast
3:35 PM 44.6 °F 35.9 °F 30.2 °F 57% 29.31 in 10.0 mi SSW 23.0 mph 32.2 mph N/A   Overcast
3:55 PM 42.8 °F 34.5 °F 30.2 °F 61% 29.32 in 10.0 mi SW 18.4 mph 27.6 mph N/A   Overcast
4:15 PM 42.8 °F 32.3 °F 30.2 °F 61% 29.32 in 10.0 mi SSW 29.9 mph 39.1 mph N/A   Overcast
4:35 PM 41.0 °F 31.9 °F 32.0 °F 70% 29.34 in 10.0 mi SW 19.6 mph 34.5 mph N/A   Overcast
4:55 PM 39.2 °F 28.5 °F 32.0 °F 75% 29.34 in 10.0 mi SSW 24.2 mph 33.4 mph N/A   Overcast
5:15 PM 39.2 °F 29.8 °F 33.8 °F 81% 29.34 in 10.0 mi SW 18.4 mph 34.5 mph N/A   Light Drizzle
5:35 PM 39.2 °F 30.2 °F 33.8 °F 81% 29.35 in 10.0 mi SSW 17.3 mph 29.9 mph N/A   Overcast
5:55 PM 37.4 °F 26.1 °F 33.8 °F 87% 29.36 in 10.0 mi SW 24.2 mph 33.4 mph N/A   Overcast
6:15 PM 37.4 °F 26.6 °F 33.8 °F 87% 29.37 in 10.0 mi SW 21.9 mph 35.7 mph N/A   Overcast
6:35 PM 37.4 °F 26.4 °F 33.8 °F 87% 29.38 in 10.0 mi SW 23.0 mph 31.1 mph N/A   Overcast
6:55 PM 37.4 °F 28.2 °F 33.8 °F 87% 29.39 in 10.0 mi SW 16.1 mph 26.5 mph N/A   Overcast
7:15 PM 37.4 °F 27.8 °F 33.8 °F 87% 29.40 in 10.0 mi WSW 17.3 mph 28.8 mph N/A   Overcast
7:35 PM 37.4 °F 25.9 °F 30.2 °F 75% 29.42 in 10.0 mi WSW 25.3 mph 34.5 mph N/A   Overcast
7:55 PM 35.6 °F 24.8 °F 30.2 °F 81% 29.43 in 10.0 mi WSW 19.6 mph 31.1 mph N/A   Overcast
8:15 PM 35.6 °F 24.5 °F 28.4 °F 75% 29.45 in 10.0 mi WSW 20.7 mph 27.6 mph N/A   Overcast
8:35 PM 35.6 °F 24.5 °F 28.4 °F 75% 29.46 in 10.0 mi WSW 20.7 mph 36.8 mph N/A   Overcast
8:55 PM 35.6 °F 23.4 °F 26.6 °F 70% 29.47 in 10.0 mi West 25.3 mph 35.7 mph N/A   Overcast
9:15 PM 35.6 °F 24.0 °F 26.6 °F 70% 29.49 in 10.0 mi West 23.0 mph 29.9 mph N/A   Overcast
9:35 PM 33.8 °F 21.9 °F 26.6 °F 75% 29.50 in 10.0 mi WSW 21.9 mph 33.4 mph N/A   Overcast
9:55 PM 33.8 °F 22.2 °F 26.6 °F 75% 29.51 in 10.0 mi West 20.7 mph 31.1 mph N/A   Overcast
10:15 PM 33.8 °F 21.3 °F 26.6 °F 75% 29.52 in 10.0 mi West 24.2 mph 33.4 mph N/A   Overcast
10:35 PM 33.8 °F 20.5 °F 26.6 °F 75% 29.54 in 10.0 mi West 27.6 mph 34.5 mph N/A   Overcast
10:55 PM 33.8 °F 20.8 °F 24.8 °F 70% 29.56 in 10.0 mi West 26.5 mph 40.3 mph N/A   Overcast
11:15 PM 33.8 °F 20.5 °F 24.8 °F 70% 29.57 in 10.0 mi West 27.6 mph 34.5 mph N/A   Overcast
11:35 PM 33.8 °F 22.5 °F 23.0 °F 65% 29.59 in 10.0 mi West 19.6 mph 32.2 mph N/A   Overcast
11:55 PM 33.8 °F 21.6 °F 23.0 °F 65% 29.59 in 10.0 mi West 23.0 mph 42.6 mph N/A   Overcast